• Join FlightAware (Why Join?)
  • Login
  • US Flag GB Flag 
03:05 EDT


 

Airport Tracker/Info


-or-


 

Live Flight TrackerFlight Track Log ✈ AAL1862 ✈ 01-May-2013 ✈ KDFW - KSTL

Flight Track Log - Related Links

Times and Time Zones

All times are in EDT time to prevent confusion due to time zone crossing. See the AAL1862 flight status page for this flight to view local times or setup timezone preferences in your user account.

Time Position Orientation Groundspeed Altitude Reporting Facility
EDT Latitude Longitude Course Direction KTS MPH feet Rate Location/Type
07:47 32.9000 -97.0333 357° North 141 162 1,200  Level Dallas / Fort Worth TRACON
07:48 32.8500 -97.0333 180° South 209 241 3,200 2,700 Climbing Dallas / Fort Worth TRACON
07:49 32.8583 -96.8000 North  Level FlightAware Approximate
07:49 32.7833 -96.9833 148° Southeast 258 297 6,700  Level Dallas / Fort Worth TRACON
07:50 32.9794 -96.8000 North  Level FlightAware Approximate
07:50 32.8281 -96.8942 59° Northeast 334 384 11,100  Level Fort Worth Center
07:51 33.1004 -96.8024 357° North  Level FlightAware Approximate
07:51 32.9136 -96.8889 North 316 364 13,000  Level Fort Worth Center
07:52 33.2213 -96.8110 357° North  Level FlightAware Approximate
07:52 33.0306 -96.8758 North 364 419 16,100  Level Fort Worth Center
07:53 33.1350 -96.8653 North 403 464 19,000 3,300 Climbing Fort Worth Center
07:54 33.2558 -96.8494 North 401 461 22,800 2,940 Climbing Fort Worth Center
07:55 33.3497 -96.8389 North 385 443 24,900 2,040 Climbing Fort Worth Center
07:56 33.4686 -96.8133 10° North 385 443 26,900 1,860 Climbing Fort Worth Center
07:57 33.5561 -96.7578 28° Northeast 390 449 28,700 1,740 Climbing Fort Worth Center
07:58 33.6661 -96.6872 28° Northeast 401 461 30,400 1,500 Climbing Fort Worth Center
07:59 33.7597 -96.6264 28° Northeast 417 480 31,800 1,500 Climbing Fort Worth Center
08:00 33.8700 -96.5556 28° Northeast 413 475 33,400 1,560 Climbing Fort Worth Center
08:01 33.9697 -96.4944 27° Northeast 402 463 35,000 780 Climbing Fort Worth Center
08:02 34.0631 -96.4281 31° Northeast 412 474 35,000  Level Fort Worth Center
08:03 34.1564 -96.3519 34° Northeast 407 468 35,000  Level Fort Worth Center
08:04 34.2539 -96.2753 33° Northeast 412 474 35,000  Level Fort Worth Center
08:05 34.3656 -96.1883 33° Northeast 418 481 35,000  Level Fort Worth Center
08:06 34.4608 -96.1114 34° Northeast 413 475 35,000  Level Fort Worth Center
08:07 34.5581 -96.0292 35° Northeast 418 481 35,000  Level Fort Worth Center
08:08 34.6531 -95.9494 35° Northeast 418 481 35,000  Level Fort Worth Center
08:09 34.7503 -95.8744 32° Northeast 418 481 35,000  Level Fort Worth Center
08:10 34.8453 -95.7944 35° Northeast 418 481 35,000  Level Fort Worth Center
08:11 34.9358 -95.7039 39° Northeast 418 481 35,000  Level Fort Worth Center
08:12 35.0286 -95.6208 36° Northeast 418 481 35,000  Level Fort Worth Center
08:13 35.1006 -95.5483 39° Northeast 418 481 35,000  Level Fort Worth Center
08:16 35.3272 -95.3375 37° Northeast 425 489 35,000  Level Memphis Center
08:17 35.4206 -95.2461 39° Northeast 425 489 35,000  Level Memphis Center
08:18 35.5136 -95.1572 38° Northeast 425 489 35,000  Level Memphis Center
08:19 35.6069 -95.0656 39° Northeast 425 489 35,000  Level Memphis Center
08:20 35.6997 -94.9764 38° Northeast 425 489 35,000  Level Memphis Center
08:21 35.7950 -94.8844 38° Northeast 425 489 35,000  Level Memphis Center
08:22 35.8878 -94.7947 38° Northeast 425 489 35,000  Level Memphis Center
08:23 35.9808 -94.7022 39° Northeast 425 489 35,000  Level Memphis Center
08:25 36.1842 -94.5036 38° Northeast 426 490 35,000  Level Kansas City Center
08:26 36.2778 -94.4119 38° Northeast 428 493 35,000  Level Kansas City Center
08:27 36.3706 -94.3194 39° Northeast 429 494 35,000  Level Kansas City Center
08:28 36.4639 -94.2264 39° Northeast 429 494 35,000  Level Kansas City Center
08:29 36.5622 -94.1331 37° Northeast 438 504 35,000  Level Kansas City Center
08:30 36.6753 -94.0203 39° Northeast 435 501 35,000  Level Kansas City Center
08:31 36.7700 -93.9250 39° Northeast 438 504 35,000  Level Kansas City Center
08:32 36.8647 -93.8308 38° Northeast 437 503 35,000  Level Kansas City Center
08:33 36.9558 -93.7378 39° Northeast 433 498 35,000  Level Kansas City Center
08:34 37.0503 -93.6408 39° Northeast 436 502 35,000  Level Kansas City Center
08:35 37.1458 -93.5447 39° Northeast 439 505 35,000  Level Kansas City Center
08:36 37.2419 -93.4478 39° Northeast 441 507 35,000  Level Kansas City Center
08:37 37.3392 -93.3508 38° Northeast 443 510 35,000  Level Kansas City Center
08:38 37.4322 -93.2469 42° Northeast 445 512 35,000  Level Kansas City Center
08:39 37.5228 -93.1408 43° Northeast 444 511 35,000  Level Kansas City Center
08:40 37.6311 -93.0125 43° Northeast 444 511 35,000  Level Kansas City Center
08:41 37.7231 -92.9053 43° Northeast 445 512 35,000 -120 Level Kansas City Center
08:42 37.8139 -92.7989 43° Northeast 444 511 34,800 -540 Descending Kansas City Center
08:43 37.9025 -92.6942 43° Northeast 444 511 33,900 -900 Descending Kansas City Center
08:44 37.9906 -92.5881 44° Northeast 441 507 33,000 -480 Descending Kansas City Center
08:45 38.0794 -92.4853 42° Northeast 435 501 33,000  Level Kansas City Center
08:46 38.1678 -92.3794 43° Northeast 438 504 33,000 -420 Level Kansas City Center
08:47 38.2661 -92.2614 43° Northeast 438 504 32,200 -2,460 Descending Kansas City Center
08:48 38.3564 -92.1508 44° Northeast 444 511 28,000 -3,720 Descending Kansas City Center
08:49 38.4500 -92.0378 43° Northeast 457 526 24,600 -3,180 Descending Kansas City Center
08:51 38.4872 -91.8908 72° East 434 499 21,600 -2,880 Descending Kansas City Center
08:52 38.5161 -91.7444 76° East 424 488 18,700 -2,880 Descending Kansas City Center
08:53 38.5492 -91.6047 73° East 412 474 15,800 -2,460 Descending Kansas City Center
08:54 38.5794 -91.4689 74° East 400 460 13,700 -1,800 Descending Kansas City Center
08:55 38.6131 -91.3322 72° East 389 448 12,200 -1,320 Descending Kansas City Center
08:56 38.6406 -91.2058 74° East 374 430 11,000 -900 Descending Kansas City Center
08:57 38.6750 -91.0589 73° East 362 417 10,400 -840 Descending Kansas City Center
08:58 38.7019 -90.9556 71° East 312 359 9,300 -1,260 Descending Kansas City Center
08:59 38.7622 -90.8822 43° Northeast 298 343 7,900 -1,140 Descending Kansas City Center
09:00 38.8178 -90.8089 46° Northeast 288 331 7,000 -1,260 Descending Kansas City Center
09:01 38.8411 -90.7178 72° East 277 319 5,400 -1,500 Descending Kansas City Center
09:02 38.8447 -90.6189 87° East 276 318 3,900 -1,500 Descending Kansas City Center